Flag for U.S.A. Weather past 2 weeks in Victorville, California, U.S.A.

Now
63 °F

Clear.


Feels Like: 63 °F
Forecast: 56 / 85 °F
Wind: 7 mph from South

Location: George Air Force Base / Victorvi

Current Time: Sep 20, 2014 at 6:09:51 AM

Latest Report: Sep 20, 2014 at 5:35 AM


Visibility: 10 mi

Pressure: 29.96 "Hg

Humidity: 73%

Dew point: 54 °F

Location of VictorvilleLocation

Historic Weather in Victorville — Graph

°F

Victorville temperature yesterday

Maximum temperature yesterday: 86 °F (at 3:55 PM)
Minimum temperature yesterday: 57 °F (at 6:55 AM)
Average temperature yesterday: 71 °F

Past Weeks' High & Low Weather Summary

 TemperatureHumidityPressure
High100 °F (Sep 15, 3:15 PM)88% (Sep 19, 6:55 AM)30.05 "Hg (Sep 19, 6:55 AM)
Low57 °F (Sep 19, 6:55 AM)5% (Sep 9, 5:15 PM)29.80 "Hg (Sep 17, 5:15 PM)
Average80 °F34%29.94 "Hg
* Reported Sep 5 4:15 AM — Sep 20 4:55 AM, Victorville, Weather by CustomWeather, © 2014

Note: Actual official high and low records may vary slightly from our data, if they occured in-between our weather recording intervals... More about our weather records

Advertising

Victorville weather history for previous 24 hours

 ConditionsComfort  
Time TempWeatherWind HumidityBarometerVisibility
4:55 AM
Sep 20
64 °FClear.5 mph68%29.96 "Hg10 mi
4:15 AM64 °FClear.3 mph64%29.96 "Hg10 mi
3:55 AM64 °FClear.No wind64%29.96 "Hg10 mi
3:15 AM64 °FClear.5 mph64%29.95 "Hg10 mi
2:55 AM64 °FClear.6 mph68%29.96 "Hg10 mi
2:15 AM64 °FClear.3 mph68%29.96 "Hg10 mi
1:55 AM64 °FClear.No wind68%29.96 "Hg10 mi
1:15 AM64 °FClear.6 mph68%29.96 "Hg10 mi
12:55 AM64 °FClear.No wind68%29.96 "Hg10 mi
12:35 AM66 °FClear.5 mph64%29.96 "Hg10 mi
12:15 AM66 °FClear.3 mph64%29.96 "Hg10 mi
11:55 PM
Sep 19
68 °FClear.3 mph60%29.96 "Hg10 mi
11:35 PM68 °FClear.3 mph60%29.95 "Hg10 mi
11:15 PM70 °FClear.5 mph57%29.95 "Hg10 mi
10:55 PM70 °FClear.5 mph57%29.95 "Hg10 mi
10:35 PM70 °FClear.3 mph57%29.95 "Hg10 mi
10:15 PM72 °FClear.7 mph53%29.95 "Hg10 mi
9:55 PM72 °FClear.7 mph53%29.94 "Hg10 mi
9:35 PM72 °FClear.5 mph44%29.93 "Hg10 mi
9:15 PM73 °FClear.8 mph41%29.93 "Hg10 mi
8:55 PM73 °FClear.6 mph38%29.92 "Hg10 mi
8:35 PM75 °FClear.7 mph36%29.92 "Hg10 mi
8:15 PM75 °FClear.9 mph34%29.91 "Hg10 mi
7:55 PM77 °FClear.8 mph30%29.91 "Hg10 mi
7:35 PM77 °FSunny.9 mph26%29.90 "Hg10 mi
7:15 PM79 °FSunny.8 mph24%29.89 "Hg10 mi
6:55 PM81 °FSunny.8 mph24%29.89 "Hg10 mi
6:15 PM82 °FSunny.13 mph23%29.88 "Hg10 mi
5:55 PM82 °FSunny.14 mph25%29.88 "Hg10 mi
5:15 PM84 °FSunny.16 mph22%29.88 "Hg10 mi
4:55 PM84 °FSunny.13 mph23%29.88 "Hg10 mi
4:35 PM86 °FSunny.7 mph20%29.88 "Hg10 mi
4:15 PM86 °FSunny.3 mph22%29.88 "Hg10 mi
3:55 PM86 °FSunny.6 mph22%29.88 "Hg10 mi
3:35 PM84 °FSunny.No wind23%29.89 "Hg10 mi
3:15 PM84 °FSunny.6 mph23%29.89 "Hg10 mi
2:15 PM84 °FSunny.7 mph23%29.90 "Hg10 mi
1:55 PM84 °FSunny.No wind23%29.91 "Hg10 mi
1:15 PM81 °FSunny.No wind26%29.92 "Hg10 mi
12:55 PM81 °FSunny.No wind26%29.93 "Hg10 mi
12:35 PM79 °FSunny.No wind30%29.94 "Hg10 mi
12:15 PM79 °FSunny.6 mph32%29.94 "Hg10 mi
11:55 AM79 °FSunny.3 mph32%29.95 "Hg10 mi
11:35 AM77 °FSunny.No wind34%29.95 "Hg10 mi
11:15 AM77 °FSunny.6 mph36%29.96 "Hg10 mi
10:55 AM75 °FSunny.No wind39%29.96 "Hg10 mi
10:15 AM72 °FSunny.7 mph50%29.96 "Hg10 mi
9:55 AM72 °FSunny.5 mph50%29.97 "Hg10 mi
9:35 AM70 °FSunny.6 mph53%29.96 "Hg10 mi
9:15 AM70 °FSunny.8 mph53%29.96 "Hg10 mi
8:55 AM70 °FSunny.7 mph53%29.96 "Hg10 mi
8:35 AM68 °FSunny.5 mph60%29.96 "Hg10 mi
8:15 AM66 °FSunny.3 mph64%29.95 "Hg10 mi
7:55 AM64 °FSunny.3 mph68%29.95 "Hg10 mi
7:15 AM61 °FClear.5 mph77%29.95 "Hg10 mi
6:55 AM57 °FClear.3 mph88%29.94 "Hg10 mi
6:35 AM59 °FClear.No wind82%29.93 "Hg10 mi
6:15 AM59 °FClear.5 mph82%29.93 "Hg10 mi
Weather by CustomWeather, © 2014

See weather overviewHow to use our weather pages